2025-012A (62725 NORAD) Tracking and Keplerian Element Data

This shows tracking and keplerian element data for the satellite.

Feedback or suggestion? Click here.




ElementValue
Catalog62725
Name2025-012A
Epoch Orbit268
Epoch Day35.18793008
Epoch Year2025
RAAN110.8362
Inclination97.477
Eccentricity0.0009177
Argument of Perigee207.6867
Mean Anonmoly152.3878
Mean Motion15.14631553
Decay Rate0.0001393
L11 62725U 25012A 25035.18793008 .00013930 00000+0 75582-3 0 9998
L22 62725 97.4770 110.8362 0009177 207.6867 152.3878 15.14631553 2683



Live tracking and technical data element details for 2025-012A (NORAD 62725). 2025-012A can be tracked NOW for your location showing map with azimuth and elevation plus other details from your city location.







IsCatalogInMostPopularTable: catalog: 62725, numindb: 3
Update: records affected: 1



GetName: 62725 2025-012A

Hit Count: updated at: Sun, 09 Feb 2025 14:37:06 GMT